Home > Time Zones > World Clock > Weather > Spain > Palma > Past weeks

Flag for Spain Weather past 2 weeks in Palma, Majorca, Spain

Now
70 °F

Strong thunderstorms. More clouds than sun.


Feels Like: 70 °F
Forecast: 70 / 76 °F
Wind: 22 mph from Northeast

Location: Palma De Mallorca / Son San Juan

Current Time: Sep 4, 2015 at 7:31:40 PM

Latest Report: Sep 4, 2015 at 7:00 PM


Visibility: 0 mi

Pressure: 29.89 "Hg

Humidity: 94%

Dew point: 68 °F

Location of PalmaLocation

Historic Weather in Palma — Graph

°F

Palma temperature yesterday

Maximum temperature yesterday: 84 °F (at 12:00 PM)
Minimum temperature yesterday: 73 °F (at 1:00 AM)
Average temperature yesterday: 79 °F

Past Weeks' High & Low Weather Summary

 TemperatureHumidityPressure
High91 °F (Aug 22, 1:00 PM)100% (Aug 22, 4:30 AM)30.18 "Hg (Aug 22, 4:30 AM)
Low64 °F (Sep 4, 11:00 AM)34% (Aug 22, 2:00 PM)29.77 "Hg (Aug 23, 6:00 AM)
Average79 °F73%29.99 "Hg
* Reported Aug 20 6:00 PM — Sep 4 6:30 PM, Palma, Weather by CustomWeather, © 2015

Note: Actual official high and low records may vary slightly from our data, if they occured in-between our weather recording intervals... More about our weather records

Advertising

Palma weather history for previous 24 hours

 ConditionsComfort  
Time TempWeatherWind HumidityBarometerVisibility
6:30 PM
Fri, Sep 4
72 °FThunderstorms. Broken clouds.20 mph88%29.83 "Hg4 mi
6:00 PM73 °FRain. Scattered clouds.20 mph83%29.86 "HgN/A
5:30 PM79 °FBroken clouds.14 mph70%29.86 "HgN/A
5:00 PM77 °FRain showers. Scattered clouds.15 mph74%29.86 "HgN/A
4:30 PM81 °FScattered clouds.16 mph66%29.86 "HgN/A
4:00 PM81 °FScattered clouds.18 mph66%29.89 "HgN/A
3:30 PM79 °FScattered clouds.16 mph70%29.89 "HgN/A
3:00 PM81 °FScattered clouds.17 mph70%29.89 "HgN/A
2:30 PM79 °FScattered clouds.17 mph70%29.89 "HgN/A
2:00 PM79 °FScattered clouds.16 mph74%29.89 "HgN/A
1:30 PM77 °FScattered clouds.18 mph79%29.89 "HgN/A
1:00 PM75 °FScattered clouds.14 mph89%29.89 "HgN/A
12:50 PM75 °FScattered clouds.13 mph83%29.92 "HgN/A
12:30 PM72 °FRain. Scattered clouds.9 mph94%29.92 "HgN/A
12:00 PM68 °FScattered clouds.9 mph94%29.92 "HgN/A
11:30 AM66 °FScattered clouds.10 mph88%29.95 "HgN/A
11:00 AM64 °FMild.29 mph94%29.98 "Hg1 mi
10:49 AM66 °FHail. Partly sunny.30 mph94%29.95 "Hg0 mi
10:30 AM75 °FBroken clouds.24 mph74%29.86 "HgN/A
10:00 AM77 °FScattered clouds.22 mph74%29.89 "HgN/A
9:30 AM77 °FPartly sunny.15 mph79%29.92 "HgN/A
9:00 AM75 °FScattered clouds.13 mph83%29.92 "HgN/A
8:30 AM75 °FScattered clouds.9 mph83%29.89 "HgN/A
8:00 AM73 °FPassing clouds.9 mph89%29.89 "HgN/A
7:30 AM72 °FPassing clouds.10 mph88%29.89 "HgN/A
7:00 AM72 °FPassing clouds.10 mph83%29.89 "HgN/A
6:30 AM72 °FPassing clouds.15 mph88%29.89 "HgN/A
6:00 AM73 °FThundershowers. Passing clouds.10 mph89%29.92 "HgN/A
5:30 AM73 °FThundershowers. Passing clouds.7 mph94%29.92 "HgN/A
5:00 AM73 °FThundershowers. Passing clouds.6 mph94%29.89 "HgN/A
4:30 AM73 °FThundershowers. Passing clouds.7 mph94%29.92 "HgN/A
4:00 AM73 °FPassing clouds.7 mph94%29.92 "HgN/A
3:30 AM75 °FPassing clouds.7 mph89%29.89 "HgN/A
3:00 AM75 °FPassing clouds.6 mph89%29.92 "HgN/A
2:30 AM75 °FPassing clouds.8 mph89%29.92 "HgN/A
2:00 AM75 °FPassing clouds.9 mph89%29.92 "HgN/A
1:30 AM75 °FPassing clouds.6 mph89%29.95 "HgN/A
1:00 AM75 °FPassing clouds.7 mph94%29.92 "HgN/A
12:30 AM75 °FPassing clouds.7 mph94%29.92 "HgN/A
11:00 PM
Thu, Sep 3
75 °FPassing clouds.6 mph89%29.92 "HgN/A
10:30 PM77 °FPassing clouds.7 mph83%29.92 "HgN/A
10:00 PM77 °FPassing clouds.7 mph83%29.89 "HgN/A
9:30 PM77 °FPassing clouds.2 mph79%29.89 "HgN/A
9:00 PM79 °FScattered clouds.1 mph79%29.89 "HgN/A
8:30 PM79 °FScattered clouds.3 mph79%29.89 "HgN/A
8:00 PM81 °FScattered clouds.7 mph74%29.86 "HgN/A
7:30 PM81 °FScattered clouds.8 mph74%29.86 "HgN/A
7:00 PM82 °FScattered clouds.8 mph70%29.86 "HgN/A
Weather by CustomWeather, © 2015

See weather overviewHow to use our weather pages